Regional Weather Roundup
Issued by NWS

Home | Current Version | Previous Version | Graphics & Text | Print | Product List | Glossary On
Versions: 1 2 3 4 5 6 7 8 9 10 11 12 13 14 15 16 17 18 19 20 21 22 23 24 25 26 27 28 29 30 31 32 33 34 35 36 37 38 39 40 41 42 43 44 45 46 47 48 49
000
ASUS45 KBOU 311807
RWRCO

WEATHER ROUNDUP FOR COLORADO
NATIONAL WEATHER SERVICE DENVER/BOULDER CO
1100 AM MST SAT JAN 31 2015

NOTE: "FAIR" INDICATES FEW OR NO CLOUDS BELOW 12000 FEET WITH NO
SIGNIFICANT WEATHER AND/OR OBSTRUCTIONS TO VISIBILITY.

COZ001>005-013-030-031-311900-
...NORTHWEST COLORADO...

CITY           SKY/WX    TMP DP  RH WIND       PRES   REMARKS
CRAIG          LGT SNOW  32  29  88 W10       29.95R FOG     WCI  24
HAYDEN         CLOUDY    30  27  86 W12       29.92S WCI  21
MEEKER         LGT SNOW  33  31  92 W9        29.94R FOG     WCI  25
MOUNT WERNER   NOT AVBL
STEAMBOAT SPGS CLOUDY    31  29  93 SW7       29.91S WCI  24
WALDEN         CLOUDY    30  27  86 NW3       29.88R
$$

COZ006>008-011-311900-
...WEST CENTRAL VALLEYS...

CITY           SKY/WX    TMP DP  RH WIND       PRES   REMARKS
GRAND JUNCTION LGT RAIN  38  36  92 NW6       29.94R
MONTROSE       LGT RAIN  36  34  92 CALM      29.95R
EAGLE          LGT SNOW  36  34  93 CALM      29.92S
RIFLE          LGT RAIN  35  34  96 W5        29.93S WCI  31
DELTA          LGT RAIN  41  39  95 N3        29.93S
NUCLA          LGT RAIN  34  34 100 CALM      29.98S
$$

COZ017>023-064>068-311900-
...SOUTHWEST COLORADO...

CITY           SKY/WX    TMP DP  RH WIND       PRES   REMARKS
DURANGO        CLOUDY    34  32  92 W3        29.91S
CORTEZ         CLOUDY    36  34  92 W6        29.94S
PAGOSA SPRINGS CLOUDY    36  34  93 S6        29.90S
TELLURIDE      FOG       30  30 100 W8        29.93S VSB 1   WCI  23
WOLF CREEK PAS SNOW      23  23 100 SW10      29.95S VSB<1/4 WCI  12
$$

COZ009-010-012-014-032>034-037-058>063-311900-
...CENTRAL COLORADO...

CITY           SKY/WX    TMP DP  RH WIND       PRES   REMARKS
ASPEN          SNOW      32  31  96 N5        29.88S VSB 1/2 WCI  27
BUENA VISTA    LGT SNOW  32  29  88 CALM      29.88S
COPPER MTN     LGT SNOW  28  23  80 W14       29.91F VSB 3/4 WCI  17
BERTHOUD PASS  CLOUDY    19  14  79 NW16G22   29.90F WCI   5
COTTONWOOD PAS LGT SNOW  32  30  93 CALM      29.89S
GUNNISON       CLOUDY    32  28  86 CALM      29.91S
KREMMLING      LGT SNOW  32  28  86 CALM      29.90F
LEADVILLE      CLOUDY    25  23  92 CALM      29.87F
MONARCH PASS   SNOW      25  23  93 MISG      30.01F VSB<1/4
SALIDA         CLOUDY    36  33  90 CALM      29.94F
SUNLIGHT       SNOW      28  27  93 SW3         N/A  VSB 1/4
WILKERSON PASS SNOW     N/A N/A N/A W6        29.91F VSB 1/2
$$

COZ069>075-311900-
...SAN LUIS VALLEY/SANGRE DE CRISTO MOUNTAINS...

CITY           SKY/WX    TMP DP  RH WIND       PRES   REMARKS
ALAMOSA        CLOUDY    31  28  89 S6        29.89F WCI  25
LA VETA PASS   FOG       28  27  93 SW8       29.88S VSB 1/4 WCI  20
SAGUACHE       LGT SNOW  32  30  93 CALM      29.90S
$$

COZ035-036-038>040-311900-
...NORTHERN COLORADO FRONT RANGE...

CITY           SKY/WX    TMP DP  RH WIND       PRES   REMARKS
DENVER INTL AP CLOUDY    36  26  67 N7        29.88F
DMNS CITY PARK   N/A     37  25  60 E2        29.87F
AURORA         CLOUDY    34  26  71 N3        29.89F
FRONT RANGE AP CLOUDY    36  28  75 NW5       29.89F
ERIE MUNI ARPT CLOUDY    38  26  61 N6        29.89F
BOULDER MUN AP CLOUDY    37  25  60 N5        29.88F
CENTENNIAL     CLOUDY    35  26  69 N6        29.88F WCI  30
BROOMFIELD     PTSUNNY   37  25  60 N5        29.90R
FORT COLLINS   CLOUDY    39  27  60 NE5       29.91F
LONGMONT       CLOUDY    42  26  55 NE3       29.91F
$$

COZ041-046-047-076>085-087-088-311900-
...PIKES PEAK/PALMER DIVIDE AND SOUTHERN FOOTHILLS...

CITY           SKY/WX    TMP DP  RH WIND       PRES   REMARKS
COLO. SPRINGS  LGT SNOW  37  30  75 SE3       29.87S FOG
A. F. ACADEMY  CLOUDY    36  23  59 N2        29.85F
ELLICOTT       CLOUDY   N/A N/A N/A N5        29.85F
FALCON         LGT SNOW  34  27  75 NE3       29.86F
FORT CARSON    CLOUDY    38  27  62 CALM      29.86S
LIMON          CLOUDY    35  26  69 NW10      29.87S WCI  27
MONUMENT HILL  LGT SNOW  32  27  80 N3        29.86S
TRINIDAD       CLOUDY    41  28  60 CALM      29.86S
$$

COZ042>045-048>051-090-091-311900-
...NORTHEAST COLORADO...

CITY           SKY/WX    TMP DP  RH WIND       PRES   REMARKS
GREELEY ARPT   CLOUDY    39  25  56 CALM      29.89F
AKRON          CLOUDY    32  32 100 N10       29.87F WCI  24
BURLINGTON     CLOUDY    35  33  92 N9        29.87F FOG     WCI  28
WRAY           CLOUDY    36  33  89 N5        29.89F
STERLING       CLOUDY    36  32  87 NE5       29.89F
HOLYOKE        NOT AVBL
FORT MORGAN    MIX PCPN  36  29  78 CALM      29.89F
$$

COZ086-089-092>099-311900-
...SOUTHEAST COLORADO...

CITY           SKY/WX    TMP DP  RH WIND       PRES   REMARKS
PUEBLO         CLOUDY    41  34  76 SE5       29.86F
LA JUNTA       CLOUDY    41  36  82 CALM      29.87F
LAMAR          CLOUDY    41  37  86 N7        29.85F
SPRINGFIELD      N/A     41  35  79 SW8       29.86F
$$



USA.gov is the U.S. government's official web portal to all federal, state and local government web resources and services.